Weather History for Jackson, WY

Change the Weather History Date:

Sunday, February 5, 2012

  Actual Average Record
Temperature  
Mean Temperature 2 °F -  
Max Temperature 12 °F 27 °F 55 °F (1963)
Min Temperature -9 °F -1 °F -42 °F (1982)
Degree Days  
Heating Degree Days 64    
Moisture  
Dew Point -9 °F    
Average Humidity 74    
Maximum Humidity 100    
Minimum Humidity 55    
Precipitation  
Precipitation 0.00 in - - ()
Sea Level Pressure  
Sea Level Pressure 30.27 in    
Wind  
Wind Speed 7 mph (NNE)    
Max Wind Speed 13 mph    
Max Gust Speed -    
Visibility 10 miles    
Events      
Averages and records for this station are not official NWS values.
T = Trace of Precipitation, MM = Missing Value Source: NWS Daily Summary

Daily Weather History Graph

Daily Weather History Graph

Search for Another Location

Airport:

Trip Planner

Search our weather history database for the weather conditions in past years. The results will help you decide how hot, cold, wet, or windy it might be!

Date:

Astronomy

Feb. 05, 2012 Rise Set
Actual Time 7:35 AM MST 5:39 PM MST
Civil Twilight 7:05 AM MST 6:09 PM MST
Nautical Twilight 6:31 AM MST 6:43 PM MST
Astronomical Twilight 5:57 AM MST 7:16 PM MST
Moon 3:39 PM MST (2/5) 5:51 AM MST (2/5)
Length of Visible Light 11h 04m
Length of Day
10h 03m
Waxing Gibbous, 95% of the Moon is Illuminated
Feb 5
Waxing Gibbous
Feb 7
Full
Feb 14
Last Quarter
Feb 21
New
Feb 29
First Quarter

Hourly Weather History & Observations

Time (MST) Temp. Windchill Dew Point Humidity Pressure Visibility Wind Dir Wind Speed Gust Speed Precip Events Conditions
12:15 AM -4.0 °F -20.2 °F -11.2 °F 71% 30.34 in 10.0 mi North 9.2 mph - N/A   Clear
12:35 AM -2.2 °F -16.8 °F -7.6 °F 78% 30.35 in 10.0 mi NNE 8.1 mph - N/A   Clear
12:55 AM -2.2 °F -14.2 °F -7.6 °F 78% 30.34 in 10.0 mi North 5.8 mph - N/A   Clear
1:15 AM -5.8 °F -18.4 °F -14.8 °F 65% 30.34 in 10.0 mi North 5.8 mph - N/A   Clear
1:35 AM -2.2 °F - -2.2 °F 100% 30.34 in 10.0 mi Calm Calm - N/A   Clear
1:55 AM -4.0 °F -14.6 °F -11.2 °F 71% 30.35 in 10.0 mi NNW 4.6 mph - N/A   Clear
2:15 AM -5.8 °F -18.4 °F -9.4 °F 84% 30.35 in 10.0 mi NNE 5.8 mph - N/A   Clear
2:35 AM -5.8 °F -19.9 °F -11.2 °F 77% 30.35 in 10.0 mi North 6.9 mph - N/A   Clear
2:55 AM -5.8 °F -19.9 °F -11.2 °F 77% 30.35 in 10.0 mi NNE 6.9 mph - N/A   Clear
3:15 AM -7.6 °F -24.6 °F -18.4 °F 59% 30.35 in 10.0 mi North 9.2 mph - N/A   Clear
3:35 AM -7.6 °F -25.7 °F -11.2 °F 84% 30.35 in 10.0 mi North 10.4 mph - N/A   Clear
3:55 AM -5.8 °F -16.7 °F -9.4 °F 84% 30.34 in 10.0 mi North 4.6 mph - N/A   Clear
4:35 AM -5.8 °F -19.9 °F -11.2 °F 77% 30.34 in 10.0 mi North 6.9 mph - N/A   Clear
4:55 AM -9.4 °F -24.3 °F -18.4 °F 65% 30.34 in 10.0 mi NE 6.9 mph - N/A   Clear
5:15 AM -9.4 °F -25.6 °F -14.8 °F 77% 30.34 in 10.0 mi NNE 8.1 mph - N/A   Clear
5:35 AM -7.6 °F -24.6 °F -16.6 °F 65% 30.33 in 10.0 mi North 9.2 mph - N/A   Clear
5:55 AM -7.6 °F -23.4 °F -11.2 °F 84% 30.33 in 10.0 mi North 8.1 mph - N/A   Clear
6:15 AM -7.6 °F -20.6 °F -14.8 °F 71% 30.34 in 10.0 mi NNE 5.8 mph - N/A   Clear
6:35 AM -9.4 °F -26.8 °F -16.6 °F 71% 30.34 in 10.0 mi NNE 9.2 mph - N/A   Clear
6:52 AM -9.4 °F -27.9 °F -14.8 °F 77% 30.34 in 10.0 mi North 10.4 mph - N/A   Clear
7:59 AM -9.4 °F -24.3 °F -14.8 °F 77% 30.33 in 10.0 mi North 6.9 mph - N/A   Clear
8:54 AM -7.6 °F -22.1 °F -14.8 °F 71% 30.34 in 10.0 mi NE 6.9 mph - N/A   Clear
9:52 AM -2.2 °F -15.6 °F -5.8 °F 85% 30.33 in 10.0 mi NNE 6.9 mph - N/A   Clear
10:53 AM 1.4 °F - -7.6 °F 66% 30.32 in 10.0 mi Calm Calm - N/A   Clear
11:54 AM 3.2 °F -6.2 °F -0.4 °F 85% 30.29 in 10.0 mi SE 4.6 mph - N/A   Clear
12:54 PM 6.8 °F -0.1 °F 1.4 °F 79% 30.26 in 10.0 mi SE 3.5 mph - N/A   Clear
1:52 PM 10.4 °F 4.0 °F 1.4 °F 67% 30.23 in 10.0 mi SE 3.5 mph - N/A   Clear
2:56 PM 12.2 °F 6.1 °F 3.2 °F 67% 30.21 in 10.0 mi SSE 3.5 mph - N/A   Clear
3:53 PM 12.2 °F - 5.0 °F 73% 30.20 in 10.0 mi Calm Calm - N/A   Clear
4:54 PM 12.2 °F - 1.4 °F 62% 30.18 in 10.0 mi Calm Calm - N/A   Clear
5:53 PM 8.6 °F - -2.2 °F 62% 30.18 in 10.0 mi Calm Calm - N/A   Clear
6:53 PM 5.0 °F - -2.2 °F 72% 30.18 in 10.0 mi Calm Calm - N/A   Clear
8:52 PM -0.4 °F -15.7 °F -7.6 °F 72% 30.17 in 10.0 mi North 9.2 mph - N/A   Clear
8:59 PM -2.2 °F -16.8 °F -14.8 °F 55% 30.17 in 10.0 mi North 8.1 mph - N/A   Clear
9:15 PM -2.2 °F -18.9 °F -9.4 °F 71% 30.17 in 10.0 mi North 10.4 mph - N/A   Clear
9:35 PM -2.2 °F -20.7 °F -5.8 °F 85% 30.17 in 10.0 mi North 12.7 mph - N/A   Clear
9:55 PM -2.2 °F -16.8 °F -11.2 °F 66% 30.18 in 10.0 mi NE 8.1 mph - N/A   Clear
10:15 PM -4.0 °F -19.0 °F -9.4 °F 78% 30.18 in 10.0 mi NE 8.1 mph - N/A   Clear
10:35 PM -4.0 °F -17.8 °F -9.4 °F 78% 30.18 in 10.0 mi NNE 6.9 mph - N/A   Clear
10:55 PM -4.0 °F -12.4 °F -11.2 °F 71% 30.17 in 10.0 mi NNE 3.5 mph - N/A   Clear
11:15 PM -5.8 °F -21.2 °F -11.2 °F 77% 30.18 in 10.0 mi North 8.1 mph - N/A   Clear
11:35 PM -5.8 °F -19.9 °F -11.2 °F 77% 30.17 in 10.0 mi NNE 6.9 mph - N/A   Clear
11:55 PM -5.8 °F -22.4 °F -9.4 °F 84% 30.17 in 10.0 mi NNE 9.2 mph - N/A   Clear